Time,TemperatureF,DewpointF,PressureIn,WindDirection,WindDirectionDegrees,WindSpeedMPH,WindSpeedGustMPH,Humidity,HourlyPrecipIn,Conditions,Clouds,dailyrainin,SoftwareType,DateUTC
2013-05-21 00:03:00,59.0,58.0,30.11,SE,124,0.0,1.0,95,0.00,,,0.01,,2013-05-21 04:03:00,
2013-05-21 00:13:00,59.0,58.0,30.11,SE,124,0.0,1.0,95,0.00,,,0.01,,2013-05-21 04:13:00,
2013-05-21 00:23:00,59.0,57.0,30.11,SE,124,0.0,0.0,94,0.00,,,0.01,,2013-05-21 04:23:00,
2013-05-21 00:33:00,59.0,58.0,30.11,SE,124,0.0,1.0,95,0.00,,,0.01,,2013-05-21 04:33:00,
2013-05-21 00:42:00,59.0,58.0,30.11,SE,124,0.0,1.0,95,0.00,,,0.01,,2013-05-21 04:42:00,
2013-05-21 00:52:00,58.0,57.0,30.11,SE,124,0.0,0.0,95,0.00,,,0.01,,2013-05-21 04:52:00,
2013-05-21 01:02:00,58.0,57.0,30.11,SE,124,0.0,0.0,95,0.00,,,0.01,,2013-05-21 05:02:00,
2013-05-21 01:12:00,58.0,57.0,30.11,SE,124,0.0,0.0,95,0.00,,,0.01,,2013-05-21 05:12:00,
2013-05-21 01:22:00,58.0,57.0,30.10,SE,124,0.0,0.0,95,0.00,,,0.01,,2013-05-21 05:22:00,
2013-05-21 01:32:00,59.0,58.0,30.10,SE,124,0.0,0.0,96,0.00,,,0.00,,2013-05-21 05:32:00,
2013-05-21 01:42:00,58.0,57.0,30.10,SE,124,0.0,1.0,96,0.00,,,0.00,,2013-05-21 05:42:00,
2013-05-21 01:51:00,58.0,57.0,30.10,SE,124,0.0,1.0,96,0.00,,,0.00,,2013-05-21 05:51:00,
2013-05-21 02:02:00,59.0,58.0,30.10,SE,124,0.0,0.0,95,0.00,,,0.00,,2013-05-21 06:02:00,
2013-05-21 02:12:00,59.0,58.0,30.10,SE,124,0.0,0.0,95,0.00,,,0.00,,2013-05-21 06:12:00,
2013-05-21 02:21:00,58.0,57.0,30.10,SE,124,0.0,0.0,95,0.00,,,0.00,,2013-05-21 06:21:00,
2013-05-21 02:32:00,59.0,58.0,30.09,SE,124,0.0,1.0,96,0.00,,,0.00,,2013-05-21 06:32:00,
2013-05-21 02:42:00,59.0,58.0,30.09,SE,124,0.0,1.0,96,0.00,,,0.00,,2013-05-21 06:42:00,
2013-05-21 02:52:00,58.0,57.0,30.08,SE,124,0.0,0.0,95,0.00,,,0.00,,2013-05-21 06:52:00,
2013-05-21 03:01:00,58.0,57.0,30.07,SE,124,0.0,1.0,95,0.00,,,0.00,,2013-05-21 07:01:00,
2013-05-21 03:11:00,58.0,57.0,30.07,SE,124,0.0,1.0,95,0.00,,,0.00,,2013-05-21 07:11:00,
2013-05-21 03:22:00,57.0,56.0,30.06,SE,124,0.0,1.0,96,0.00,,,0.00,,2013-05-21 07:22:00,
2013-05-21 03:32:00,57.0,56.0,30.07,SE,124,0.0,0.0,96,0.00,,,0.00,,2013-05-21 07:32:00,
2013-05-21 03:42:00,57.0,56.0,30.07,SE,124,0.0,0.0,96,0.00,,,0.00,,2013-05-21 07:42:00,
2013-05-21 03:52:00,57.0,56.0,30.06,SE,124,0.0,0.0,95,0.00,,,0.00,,2013-05-21 07:52:00,
2013-05-21 04:02:00,56.0,55.0,30.06,SE,124,0.0,0.0,96,0.00,,,0.00,,2013-05-21 08:02:00,
2013-05-21 04:11:00,56.0,55.0,30.06,SE,124,0.0,0.0,96,0.00,,,0.00,,2013-05-21 08:11:00,
2013-05-21 04:21:00,56.0,55.0,30.06,SE,124,0.0,0.0,96,0.00,,,0.00,,2013-05-21 08:21:00,
2013-05-21 04:31:00,56.0,55.0,30.07,SE,124,0.0,0.0,96,0.00,,,0.00,,2013-05-21 08:31:00,
2013-05-21 04:42:00,56.0,55.0,30.08,SE,124,0.0,0.0,96,0.00,,,0.00,,2013-05-21 08:42:00,
2013-05-21 04:52:00,56.0,55.0,30.08,SE,124,0.0,0.0,96,0.00,,,0.00,,2013-05-21 08:52:00,
2013-05-21 05:01:00,55.0,54.0,30.09,SE,124,0.0,0.0,96,0.00,,,0.00,,2013-05-21 09:01:00,
2013-05-21 05:11:00,55.0,54.0,30.09,SE,124,0.0,0.0,96,0.00,,,0.00,,2013-05-21 09:11:00,
2013-05-21 05:21:00,55.0,54.0,30.08,SE,124,0.0,0.0,96,0.00,,,0.00,,2013-05-21 09:21:00,
2013-05-21 05:33:00,55.0,54.0,30.06,SE,124,0.0,0.0,96,0.00,,,0.00,,2013-05-21 09:33:00,
2013-05-21 05:42:00,55.0,54.0,30.06,SE,124,0.0,0.0,96,0.00,,,0.00,,2013-05-21 09:42:00,
2013-05-21 05:52:00,55.0,54.0,30.06,SE,124,0.0,0.0,96,0.00,,,0.00,,2013-05-21 09:52:00,
2013-05-21 06:03:00,55.0,54.0,30.06,SE,124,0.0,0.0,97,0.00,,,0.00,,2013-05-21 10:03:00,
2013-05-21 06:12:00,55.0,54.0,30.06,SE,124,0.0,0.0,97,0.00,,,0.00,,2013-05-21 10:12:00,
2013-05-21 06:22:00,55.0,54.0,30.07,SE,124,0.0,0.0,96,0.00,,,0.00,,2013-05-21 10:22:00,
2013-05-21 06:33:00,55.0,54.0,30.06,SE,124,0.0,1.0,96,0.00,,,0.00,,2013-05-21 10:33:00,
2013-05-21 06:42:00,55.0,54.0,30.06,SE,124,0.0,1.0,96,0.00,,,0.00,,2013-05-21 10:42:00,
2013-05-21 06:52:00,56.0,55.0,30.06,SE,124,0.0,1.0,97,0.00,,,0.00,,2013-05-21 10:52:00,
2013-05-21 07:02:00,56.0,55.0,30.05,SE,124,0.0,1.0,97,0.00,,,0.00,,2013-05-21 11:02:00,
2013-05-21 07:12:00,56.0,55.0,30.05,SE,124,0.0,1.0,97,0.00,,,0.00,,2013-05-21 11:12:00,
2013-05-21 07:22:00,57.0,56.0,30.05,NNW,335,0.0,2.0,97,0.00,,,0.00,,2013-05-21 11:22:00,
2013-05-21 07:32:00,57.0,56.0,30.06,NNW,335,0.0,0.0,97,0.00,,,0.00,,2013-05-21 11:32:00,
2013-05-21 07:42:00,57.0,56.0,30.06,NNW,335,0.0,0.0,97,0.00,,,0.00,,2013-05-21 11:42:00,
2013-05-21 07:51:00,58.0,57.0,30.06,NNW,340,0.0,0.0,97,0.00,,,0.00,,2013-05-21 11:51:00,
2013-05-21 08:01:00,60.0,59.0,30.06,NNW,330,0.0,3.0,97,0.00,,,0.00,,2013-05-21 12:01:00,
2013-05-21 08:11:00,60.0,59.0,30.06,NNW,330,0.0,3.0,97,0.00,,,0.00,,2013-05-21 12:11:00,
2013-05-21 08:21:00,63.0,61.0,30.06,WSW,251,0.0,2.0,92,0.00,,,0.00,,2013-05-21 12:21:00,
2013-05-21 08:32:00,66.0,61.0,30.06,WSW,251,0.0,3.0,85,0.00,,,0.00,,2013-05-21 12:32:00,
2013-05-21 08:42:00,66.0,61.0,30.06,WSW,251,0.0,3.0,85,0.00,,,0.00,,2013-05-21 12:42:00,
2013-05-21 08:51:00,68.0,63.0,30.06,SSE,147,0.0,5.0,83,0.00,,,0.00,,2013-05-21 12:51:00,
2013-05-21 09:01:00,69.0,63.0,30.05,WSW,246,0.0,2.0,80,0.00,,,0.00,,2013-05-21 13:01:00,
2013-05-21 09:12:00,69.0,63.0,30.05,WSW,246,0.0,2.0,80,0.00,,,0.00,,2013-05-21 13:12:00,
2013-05-21 09:22:00,70.0,63.0,30.05,SSW,205,0.0,2.0,79,0.00,,,0.00,,2013-05-21 13:22:00,
2013-05-21 09:32:00,70.0,64.0,30.05,WSW,253,1.0,2.0,80,0.00,,,0.00,,2013-05-21 13:32:00,
2013-05-21 09:42:00,70.0,64.0,30.05,WSW,253,1.0,2.0,80,0.00,,,0.00,,2013-05-21 13:42:00,
2013-05-21 09:52:00,71.0,64.0,30.04,SE,140,0.0,2.0,79,0.00,,,0.00,,2013-05-21 13:52:00,
2013-05-21 10:02:00,70.0,63.0,30.04,West,280,1.0,3.0,79,0.00,,,0.00,,2013-05-21 14:02:00,
2013-05-21 10:11:00,70.0,63.0,30.04,West,280,1.0,3.0,79,0.00,,,0.00,,2013-05-21 14:11:00,
2013-05-21 10:21:00,70.0,64.0,30.05,West,281,1.0,4.0,81,0.00,,,0.00,,2013-05-21 14:21:00,
2013-05-21 10:32:00,70.0,64.0,30.05,West,269,0.0,1.0,82,0.00,,,0.00,,2013-05-21 14:32:00,
2013-05-21 10:42:00,70.0,64.0,30.05,West,269,0.0,1.0,82,0.00,,,0.00,,2013-05-21 14:42:00,
2013-05-21 10:51:00,72.0,65.0,30.05,West,259,0.0,2.0,80,0.00,,,0.00,,2013-05-21 14:51:00,
2013-05-21 11:01:00,74.0,66.0,30.03,SSE,153,0.0,2.0,76,0.00,,,0.00,,2013-05-21 15:01:00,
2013-05-21 11:11:00,74.0,66.0,30.03,SSE,153,0.0,2.0,76,0.00,,,0.00,,2013-05-21 15:11:00,
2013-05-21 11:21:00,75.0,66.0,30.02,West,278,1.0,3.0,74,0.00,,,0.00,,2013-05-21 15:21:00,
2013-05-21 11:33:00,76.0,66.0,30.02,South,172,0.0,3.0,71,0.00,,,0.00,,2013-05-21 15:33:00,
2013-05-21 11:42:00,78.0,68.0,30.01,South,191,1.0,2.0,71,0.00,,,0.00,,2013-05-21 15:42:00,
2013-05-21 11:52:00,78.0,68.0,30.01,South,191,1.0,2.0,71,0.00,,,0.00,,2013-05-21 15:52:00,
2013-05-21 12:03:00,79.0,67.0,30.00,WSW,256,1.0,2.0,67,0.00,,,0.00,,2013-05-21 16:03:00,
2013-05-21 12:13:00,79.0,67.0,30.00,WSW,256,1.0,2.0,67,0.00,,,0.00,,2013-05-21 16:13:00,
2013-05-21 12:23:00,79.0,68.0,30.00,SSW,207,0.0,1.0,69,0.00,,,0.00,,2013-05-21 16:23:00,
2013-05-21 12:32:00,80.0,68.0,29.99,West,269,1.0,2.0,66,0.00,,,0.00,,2013-05-21 16:32:00,
2013-05-21 12:42:00,82.0,68.0,29.99,NE,55,0.0,3.0,63,0.00,,,0.00,,2013-05-21 16:42:00,
2013-05-21 12:52:00,82.0,68.0,29.99,NE,55,0.0,3.0,63,0.00,,,0.00,,2013-05-21 16:52:00,
2013-05-21 13:02:00,83.0,68.0,29.99,WSW,256,0.0,2.0,61,0.00,,,0.00,,2013-05-21 17:02:00,
2013-05-21 13:12:00,83.0,68.0,29.99,WSW,256,0.0,2.0,61,0.00,,,0.00,,2013-05-21 17:12:00,
2013-05-21 13:23:00,83.0,68.0,29.99,SW,236,0.0,4.0,60,0.00,,,0.00,,2013-05-21 17:23:00,
2013-05-21 13:33:00,83.0,67.0,29.98,WSW,253,1.0,3.0,59,0.00,,,0.00,,2013-05-21 17:33:00,
2013-05-21 13:43:00,84.0,66.0,29.98,West,262,1.0,2.0,55,0.00,,,0.00,,2013-05-21 17:43:00,
2013-05-21 13:52:00,84.0,66.0,29.98,West,262,1.0,2.0,55,0.00,,,0.00,,2013-05-21 17:52:00,
2013-05-21 14:02:00,84.0,67.0,29.98,SSE,156,0.0,4.0,57,0.00,,,0.00,,2013-05-21 18:02:00,
2013-05-21 14:12:00,84.0,67.0,29.98,SSE,156,0.0,4.0,57,0.00,,,0.00,,2013-05-21 18:12:00,
2013-05-21 14:22:00,84.0,65.0,29.98,WNW,295,1.0,4.0,53,0.00,,,0.00,,2013-05-21 18:22:00,
2013-05-21 14:32:00,84.0,65.0,29.98,West,262,0.0,3.0,53,0.00,,,0.00,,2013-05-21 18:32:00,
2013-05-21 14:42:00,85.0,65.0,29.97,West,269,1.0,3.0,52,0.00,,,0.00,,2013-05-21 18:42:00,
2013-05-21 14:52:00,85.0,65.0,29.97,West,269,1.0,3.0,52,0.00,,,0.00,,2013-05-21 18:52:00,
2013-05-21 15:01:00,86.0,64.0,29.96,WSW,245,1.0,4.0,48,0.00,,,0.00,,2013-05-21 19:01:00,
2013-05-21 15:11:00,86.0,64.0,29.96,WSW,245,1.0,4.0,48,0.00,,,0.00,,2013-05-21 19:11:00,
2013-05-21 15:21:00,86.0,63.0,29.96,SSE,155,1.0,2.0,47,0.00,,,0.00,,2013-05-21 19:21:00,
2013-05-21 15:32:00,85.0,64.0,29.97,SE,139,0.0,2.0,49,0.00,,,0.00,,2013-05-21 19:32:00,
2013-05-21 15:42:00,85.0,64.0,29.97,SE,139,0.0,2.0,49,0.00,,,0.00,,2013-05-21 19:42:00,
2013-05-21 15:52:00,84.0,61.0,29.96,SE,128,0.0,2.0,46,0.00,,,0.00,,2013-05-21 19:52:00,
2013-05-21 16:03:00,81.0,66.0,29.96,NE,56,2.0,4.0,60,0.00,,,0.00,,2013-05-21 20:03:00,
2013-05-21 16:11:00,81.0,66.0,29.96,NE,56,2.0,4.0,60,0.00,,,0.00,,2013-05-21 20:11:00,
2013-05-21 16:22:00,79.0,67.0,29.96,East,86,3.0,6.0,66,0.00,,,0.00,,2013-05-21 20:22:00,
2013-05-21 16:32:00,77.0,66.0,29.96,ENE,67,1.0,5.0,69,0.00,,,0.00,,2013-05-21 20:32:00,
2013-05-21 16:42:00,77.0,66.0,29.96,ENE,67,1.0,5.0,69,0.00,,,0.00,,2013-05-21 20:42:00,
2013-05-21 16:52:00,78.0,67.0,29.96,NE,43,1.0,5.0,68,0.00,,,0.00,,2013-05-21 20:52:00,
2013-05-21 17:02:00,77.0,66.0,29.95,NE,44,3.0,7.0,68,0.00,,,0.00,,2013-05-21 21:02:00,
2013-05-21 17:11:00,77.0,66.0,29.95,NE,44,3.0,7.0,68,0.00,,,0.00,,2013-05-21 21:11:00,
2013-05-21 17:22:00,76.0,65.0,29.95,ENE,72,3.0,8.0,69,0.00,,,0.00,,2013-05-21 21:22:00,
2013-05-21 17:33:00,76.0,65.0,29.96,East,85,3.0,13.0,70,0.00,,,0.00,,2013-05-21 21:33:00,
2013-05-21 17:43:00,75.0,65.0,29.95,NE,53,2.0,9.0,71,0.00,,,0.00,,2013-05-21 21:43:00,
2013-05-21 17:53:00,75.0,65.0,29.95,NE,53,2.0,9.0,71,0.00,,,0.00,,2013-05-21 21:53:00,
2013-05-21 18:02:00,74.0,64.0,29.95,ENE,58,2.0,6.0,72,0.00,,,0.00,,2013-05-21 22:02:00,
2013-05-21 18:12:00,74.0,64.0,29.95,ENE,58,2.0,6.0,72,0.00,,,0.00,,2013-05-21 22:12:00,
2013-05-21 18:23:00,72.0,63.0,29.96,ENE,60,3.0,10.0,73,0.00,,,0.00,,2013-05-21 22:23:00,
2013-05-21 18:33:00,69.0,60.0,29.98,SE,124,5.0,8.0,72,0.00,,,0.00,,2013-05-21 22:33:00,
2013-05-21 18:42:00,69.0,60.0,29.98,SE,124,5.0,8.0,72,0.00,,,0.00,,2013-05-21 22:42:00,
2013-05-21 18:52:00,65.0,57.0,30.01,ENE,60,4.0,9.0,76,0.00,,,0.00,,2013-05-21 22:52:00,
2013-05-21 19:02:00,62.0,55.0,30.01,ESE,108,3.0,14.0,78,0.00,,,0.00,,2013-05-21 23:02:00,
2013-05-21 19:12:00,62.0,55.0,30.01,ESE,108,3.0,14.0,78,0.00,,,0.00,,2013-05-21 23:12:00,
2013-05-21 19:22:00,59.0,53.0,30.03,SE,132,6.0,12.0,81,0.00,,,0.00,,2013-05-21 23:22:00,
2013-05-21 19:32:00,57.0,52.0,30.03,ENE,57,5.0,9.0,83,0.00,,,0.00,,2013-05-21 23:32:00,
2013-05-21 19:42:00,56.0,52.0,30.06,NE,43,2.0,10.0,85,0.00,,,0.00,,2013-05-21 23:42:00,
2013-05-21 19:52:00,56.0,52.0,30.06,NE,43,2.0,10.0,85,0.00,,,0.00,,2013-05-21 23:52:00,
2013-05-21 20:01:00,55.0,51.0,30.04,East,79,4.0,13.0,86,0.00,,,0.00,,2013-05-22 00:01:00,
2013-05-21 20:11:00,55.0,51.0,30.04,East,79,4.0,13.0,86,0.00,,,0.00,,2013-05-22 00:11:00,
2013-05-21 20:21:00,54.0,50.0,30.04,South,184,2.0,11.0,87,0.00,,,0.00,,2013-05-22 00:21:00,
2013-05-21 20:32:00,54.0,50.0,30.05,SSW,201,2.0,6.0,87,0.00,,,0.00,,2013-05-22 00:32:00,
2013-05-21 20:42:00,54.0,50.0,30.05,SSW,201,2.0,6.0,87,0.00,,,0.00,,2013-05-22 00:42:00,
2013-05-21 20:51:00,54.0,50.0,30.06,NE,53,3.0,7.0,86,0.00,,,0.00,,2013-05-22 00:51:00,
2013-05-21 21:01:00,54.0,50.0,30.06,ESE,105,1.0,6.0,86,0.00,,,0.00,,2013-05-22 01:01:00,
2013-05-21 21:11:00,54.0,50.0,30.06,ESE,105,1.0,6.0,86,0.00,,,0.00,,2013-05-22 01:11:00,
2013-05-21 21:21:00,53.0,49.0,30.05,NNE,30,2.0,9.0,86,0.00,,,0.00,,2013-05-22 01:21:00,
2013-05-21 21:32:00,53.0,49.0,30.06,East,91,3.0,7.0,86,0.00,,,0.00,,2013-05-22 01:32:00,
2013-05-21 21:42:00,53.0,49.0,30.07,SSE,148,2.0,8.0,86,0.00,,,0.00,,2013-05-22 01:42:00,
2013-05-21 21:52:00,53.0,49.0,30.07,SSE,148,2.0,8.0,86,0.00,,,0.00,,2013-05-22 01:52:00,
2013-05-21 22:02:00,53.0,49.0,30.07,WSW,246,2.0,8.0,86,0.00,,,0.00,,2013-05-22 02:02:00,
2013-05-21 22:12:00,53.0,49.0,30.07,WSW,246,2.0,8.0,86,0.00,,,0.00,,2013-05-22 02:12:00,
2013-05-21 22:21:00,52.0,48.0,30.06,SE,142,2.0,9.0,87,0.00,,,0.00,,2013-05-22 02:21:00,
2013-05-21 22:32:00,51.0,48.0,30.08,NNW,333,2.0,7.0,90,0.00,,,0.00,,2013-05-22 02:32:00,
2013-05-21 22:42:00,51.0,48.0,30.07,ENE,65,0.0,3.0,91,0.00,,,0.00,,2013-05-22 02:42:00,
2013-05-21 22:52:00,51.0,48.0,30.07,ENE,65,0.0,3.0,91,0.00,,,0.00,,2013-05-22 02:52:00,
2013-05-21 23:01:00,51.0,48.0,30.10,NNW,332,0.0,6.0,91,0.00,,,0.00,,2013-05-22 03:01:00,
2013-05-21 23:11:00,51.0,48.0,30.10,NNW,332,0.0,6.0,91,0.00,,,0.00,,2013-05-22 03:11:00,
2013-05-21 23:21:00,51.0,48.0,30.14,ENE,76,1.0,5.0,91,0.00,,,0.00,,2013-05-22 03:21:00,
2013-05-21 23:33:00,51.0,48.0,30.11,NE,55,2.0,5.0,91,0.02,,,0.02,,2013-05-22 03:33:00,
2013-05-21 23:43:00,51.0,49.0,30.21,West,259,2.0,4.0,93,0.05,,,0.05,,2013-05-22 03:43:00,
2013-05-21 23:53:00,51.0,49.0,30.21,West,259,2.0,4.0,93,0.05,,,0.05,,2013-05-22 03:53:00,